Regional Weather Roundup
Issued by NWS Charleston, SC

Current Version | Previous Version | Graphics & Text | Print | Product List | Glossary On
Versions: 1 2 3 4 5 6 7 8 9 10 11 12 13 14 15 16 17 18 19 20 21 22 23 24 25 26 27 28 29 30 31 32 33 34 35 36 37 38 39 40 41 42 43 44 45 46 47 48 49 50
000 ASUS42 KCHS 280410 RWRCHS REGIONAL WEATHER ROUNDUP NATIONAL WEATHER SERVICE CHARLESTON SC 1100 PM EST THU NOV 27 2014 NOTE: "FAIR" INDICATES FEW OR NO CLOUDS BELOW 12,000 FEET WITH NO SIGNIFICANT WEATHER AND/OR OBSTRUCTIONS TO VISIBILITY. NOT ALL STATIONS ARE QUALITY CONTROLLED BY THE NATIONAL WEATHER SERVICE. USE DATA WITH CAUTION...ESPECIALLY DEWPOINT OBSERVATIONS. SCZ027-030-031-034>040-042>050-280500- ...SOUTHEAST SOUTH CAROLINA... CITY SKY/WX TMP DP RH WIND PRES REMARKS N CHARLESTON CLEAR 42 32 67 NW8 30.29R WATERFRONT PRK NOT AVBL MOUNT PLEASANT FAIR 43 34 70 NW8 30.28R JOHNS ISLAND CLEAR 43 37 81 NW10 30.28S PINOPOLIS N/A 48 36 61 NW16 30.19R MONCKS CORNER FAIR 43 37 81 CALM 30.28R SUMMERVILLE FAIR 41 34 75 NW5 30.31R BEAUFORT MCAS CLEAR 42 33 70 NW8 30.31R BEAUFORT ARPT FAIR 45 34 65 NW8 30.30S HILTON HEAD IS CLEAR 45 32 61 W7 30.32R WALTERBORO CLEAR 41 32 70 NW5 30.32R ALLENDALE FAIR 41 30 65 CALM 30.31R ...SOUTHERN MIDLANDS AND PEE DEE... CITY SKY/WX TMP DP RH WIND PRES REMARKS GEORGETOWN NOT AVBL KINGSTREE NOT AVBL ORANGEBURG CLEAR 41 28 60 N6 30.30S BARNWELL FAIR 39 32 75 W5 30.32F WCI 36 AIKEN FAIR 36 30 80 W3 30.35R MANNING NOT AVBL COLUMBIA CLEAR 41 27 57 NW6 30.31R SUMTER CLEAR 38 29 69 W7 30.28R WCI 33 FLORENCE CLEAR 40 30 67 NW3 30.27R MYRTLE BEACH CLEAR 43 34 70 NW8 30.27R N MYRTLE BEACH CLEAR 41 34 76 NW5 30.25R $$ GAZ063-065-086>088-099>101-113>116-118-119-134>141-150-280500- ...SOUTHEAST GEORGIA... CITY SKY/WX TMP DP RH WIND PRES REMARKS SAVANNAH ARPT CLEAR 43 31 62 NW5 30.33R HUNTER AAF CLEAR 42 32 67 NW9 30.31R FORT STEWART CLEAR 43 30 61 NW8 30.32S STATESBORO NOT AVBL SYLVANIA CLEAR 41 34 75 NW6 30.33S CLAXTON FAIR 41 14 33 W5 30.34S ...CSRA...CENTRAL AND FAR SOUTHEAST GEORGIA... CITY SKY/WX TMP DP RH WIND PRES REMARKS THOMSON CLEAR 35 32 88 CALM 30.38S AUGUSTA-BUSH CLEAR 39 27 62 NW8 30.33S WCI 33 AUGUSTA-DANIEL CLEAR 41 27 57 NW10 30.32S SWAINSBORO FAIR 37 34 87 CALM 30.36R VIDALIA CLEAR 41 32 70 NW6 30.35S HAZLEHURST FAIR 42 33 72 NW3 30.36R ALMA CLEAR 41 30 65 NW6 30.36R WAYCROSS CLEAR 43 35 73 N7 30.36R JESUP FAIR 45 34 65 N5 30.34S BAXLEY FAIR 43 32 65 NW5 30.35S BRUNSWICK CLEAR 43 32 65 CALM 30.34S SAINT SIMONS CLEAR 45 32 60 NW9 30.33R $$ SCZ027-028-034-036>038-045-046-048>050-GAZ119-141-280500- ...LAKE AND SUPPLEMENTAL COASTAL OBSERVATIONS... STATION/POSITION TIME TEMP WIND PRES WAVE SWELL AIR SEA DIR/SP/G HT/PER HT/PER/DIR (UTC) (F) (DEG/KT/KT) (MB) (FT/S) (FT/S/D) UPR LAKE MARION NOT AVBL WINYAH BAY 0300 41 310/ 3 1024.0S LAKE MURRAY 0300 41 290/ 4/ 6 1025.4R ACE BASIN NERRS 0300 43 300/ 3 1025.0S FORT PULASKI 0400 45 310/ 11/ 15 1026.8R SAPELO ISLAND 0300 45 330/ 10 1026.0S $$ ANZ835-935-AMZ111-154-330-350-352-354-370-450-454-472-280500- ...C-MAN AND BUOY OBSERVATIONS... STATION/POSITION TIME TEMP WIND PRES WAVE SWELL AIR SEA DIR/SP/G HT/PER HT/PER/DIR (UTC) (F) (DEG/KT/KT) (MB) (FT/S) (FT/S/D) FOLLY BEACH CMAN 0400 44 310/ 6/ 13 1025.4S BUOY 41004 0400 55 72 310/ 17/ 21 1023.3R 5/ 5 2/10 BUOY 41008 0400 51 63 330/ 25/ 29 1025.4R 4/ 5 2/ 30/10 CAPERS NEARSHORE 0300 49 320/ 16/ 19 N/A FRIPP NEARSHORE NOT AVBL STATION/POSITION TIME TEMP WIND PRES WAVE SWELL AIR SEA DIR/SP/G HT/PER HT/PER/DIR (UTC) (F) (DEG/KT/KT) (MB) (FT/S) (FT/S/D) 5E ST. MARYS GA 0400 62 N/A 3/ 5 FRYING PAN BUOY 0400 51 70 350/ 21/ 27 1022.7F 7/ 5 BUOY 41025 0400 48 320/ 21/ 27 1019.8R 7/ 5 2/ 80/14 CAPE LOOKOUT NC 0400 45 330/ 21/ 25 1022.0R BUOY 41002 0253 62 73 310/ 21/ 27 1018.2 11/ 9 3/ 90/14 BUOY 41010 0400 65 77 330/ 19/ 25 1021.8F 9/ 8 5/320/14 ST AUGUSTINE FL 0400 50 340/ 19/ 23 1026.7S $$

USA.gov is the U.S. government's official web portal to all federal, state and local government web resources and services.